Flag for Germany Weather past 2 weeks in Göttingen, Lower Saxony, Germany

Now
61 °F

Passing clouds.


Feels Like: 61 °F
Forecast: 46 / 61 °F
Wind: 16 mph from Northeast

Location: Kassel / Calden


UV Index: 0 (Low)

Visibility: N/A


Pressure: 29.80 "Hg

Humidity: 59%

Dew point: 46 °F

Location of GöttingenLocation

Historic Weather in Göttingen

°F

Göttingen temperature yesterday

Maximum temperature yesterday: 59 °F (at 4:20 PM)
Minimum temperature yesterday: 37 °F (at 5:50 AM)
Average temperature yesterday: 51 °F

Past Weeks' High & Low Weather Summary

 TemperatureHumidityPressure
High68 °F (Apr 7, 2:50 PM)100% (Apr 6, 6:20 AM)30.45 "Hg (Apr 6, 6:20 AM)
Low30 °F (Apr 16, 5:50 AM)33% (Apr 17, 6:20 PM)29.77 "Hg (Apr 8, 6:20 AM)
Average50 °F72%30.06 "Hg
* Reported Apr 5 9:20 AM — Apr 20 9:50 AM, Göttingen, Weather by CustomWeather, © 2014

Note: Actual official high and low records may vary slightly from our data, if they occured in-between our weather recording intervals... More about our weather records

Advertising

Historic Weather Conditions — Data for Previous 24 hours

 ConditionsComfort  
Time TempWeatherWind HumidityBarometerVisibility
9:50 AM
Apr 20
59 °FPassing clouds.9 mph63%29.83 "HgN/A
9:20 AM55 °FSunny.3 mph72%29.83 "Hg10 mi
8:50 AM54 °FSunny.3 mph77%29.83 "Hg10 mi
8:20 AM52 °FSunny.6 mph88%29.83 "Hg10 mi
7:50 AM52 °FSunny.3 mph82%29.83 "Hg10 mi
7:20 AM52 °FSunny.5 mph82%29.83 "Hg10 mi
6:50 AM52 °FPassing clouds.5 mph82%29.83 "HgN/A
6:20 AM48 °FClear.7 mph87%29.83 "Hg10 mi
5:50 AM52 °FPassing clouds.3 mph82%29.83 "HgN/A
9:50 PM
Apr 19
52 °FClear.5 mph82%29.95 "Hg10 mi
9:20 PM54 °FSunny.6 mph77%29.95 "Hg10 mi
8:50 PM54 °FScattered clouds.7 mph82%29.95 "HgN/A
8:20 PM55 °FScattered clouds.7 mph77%29.95 "HgN/A
7:50 PM57 °FScattered clouds.10 mph72%29.95 "HgN/A
7:20 PM57 °FBroken clouds.12 mph72%29.95 "HgN/A
6:50 PM57 °FBroken clouds.10 mph72%29.95 "HgN/A
6:20 PM57 °FScattered clouds.12 mph67%29.95 "HgN/A
5:50 PM59 °FScattered clouds.10 mph63%29.95 "HgN/A
5:20 PM59 °FPassing clouds.9 mph63%29.95 "HgN/A
4:50 PM59 °FPassing clouds.9 mph59%29.95 "HgN/A
4:20 PM59 °FPassing clouds.10 mph59%29.98 "HgN/A
3:50 PM57 °FScattered clouds.10 mph59%29.98 "HgN/A
3:20 PM57 °FScattered clouds.10 mph59%29.98 "HgN/A
2:50 PM57 °FPartly sunny.13 mph59%30.01 "HgN/A
2:20 PM55 °FPartly sunny.10 mph63%30.01 "HgN/A
1:50 PM55 °FScattered clouds.12 mph59%30.04 "HgN/A
1:20 PM54 °FScattered clouds.9 mph63%30.04 "HgN/A
12:50 PM52 °FScattered clouds.10 mph67%30.04 "HgN/A
12:20 PM50 °FScattered clouds.10 mph67%30.07 "HgN/A
11:50 AM50 °FScattered clouds.12 mph67%30.07 "HgN/A
11:20 AM48 °FPassing clouds.12 mph66%30.07 "HgN/A
Weather by CustomWeather, © 2014

See weather overview